Weather in Aksu

China     41˚09′53″N   80˚16′33″E
temp.,
°C
wind,
m/s
gust,
m/s
humid.,
%
clouds,
%
prec.,
mm/h
press.,
hPa
HPBL,
m
29 november, sun
sun2923:00−2˚ene235428 0.0 103322
02:00−4˚e225914 0.0 103522
05:00−6˚e11670 0.0 103521
08:00−5˚nw23700 0.0 103526
11:00−3˚nw22640 0.0 103639
14:00+1˚ene33370 0.0 1033546
17:00+3˚e33330 0.0 1031886
20:00−2˚e34470 0.0 103427
30 november, mon
mon3023:00−4˚e22570 0.0 103621
02:00−4˚ene225812 0.0 103621
05:00−6˚n017171 0.0 103621
08:00−6˚w236835 0.0 103625
11:00−4˚w22550 0.0 103741
14:00+1˚w014217 0.0 1035597
17:00+2˚e004225 0.0 10331034
20:00−3˚se125926 0.0 103521
1 december, tue
tue123:00−4˚se126350 0.0 103721
02:00−6˚ne117054 0.0 103621
05:00−5˚e127183 0.0 103621
08:00−7˚e227669 0.0 103621
11:00−5˚ese116512 0.0 103626
14:00−1˚wnw015044 0.0 1034653
17:00ese114574 0.0 10311140
20:00−2˚e235486 0.0 103332
2 december, wed
wed223:00−3˚e225895 0.0 103621
02:00−4˚nne126197 0.0 103721
05:00−4˚ese236499 0.0 103826
08:00−6˚e127197 0.0 103921
11:00−4˚ese116784 0.0 104048
14:00−2˚ne115692 0.0 1037794
17:00−1˚e114990 0.0 10341147
20:00−4˚ene116194 0.0 103521
3 december, thu
thu323:00−5˚e126691 0.0 103721
02:00−6˚ne127665 0.0 103721
05:00−8˚w018322 0.0 103621
08:00−8˚n018546 0.0 103521
11:00−5˚ene116864 0.0 103621
14:00−2˚se005263 0.0 1033677
17:00−1˚sse1147100 0.0 1031945
20:00−5˚sw006579 0.0 103121